Location: Treviso
(45.6669°N, 12.2430°E)
Time: 06:11:18
(UTC+01:00)

ISS - Pass Details

Date: 21 January 2021
Orbit: 418 x 421 km, 51.6° (Epoch: 23 January)

Event Time Altitude Azimuth Distance (km) Brightness Sun altitude
Rises 17:51:46 0° 217° (SW) 2,357 1.1 -8.8°
Reaches altitude 10° 17:53:57 10° 208° (SSW) 1,497 -0.2 -9.2°
Maximum altitude 17:57:03 35° 142° (SE) 705 -2.8 -9.7°
Enters shadow 17:59:26 15° 81° (E) 1,244 -2.0 -10.1°
